Home > Weather > Linden > Past weeks

Flag for Guyana Past Weather in Linden, Guyana — Yesterday and Last 2 Weeks

Now
79 °F

Rain showers. Partly sunny.


Feels Like: 82 °F
Forecast: 78 / 86 °F
Wind: 14 mph from East

Location: Georgetown/Cheddi Jagan International Airport

Current Time: May 30, 2016 at 4:22:46 PM

Latest Report: May 30, 2016 at 4:00 PM


Visibility: 5 mi

Pressure: 29.83 "Hg

Humidity: 89%

Dew Point: 75 °F

Location of LindenLocation

Past Weather in Linden — Graph

°F

Linden Temperature Yesterday

Maximum temperature yesterday: 88 °F (at 12:00 PM)
Minimum temperature yesterday: 75 °F (at 3:00 AM)
Average temperature yesterday: 81 °F

High & Low Weather Summary for the Past Weeks

 TemperatureHumidityPressure
High91 °F (May 22, 1:00 PM)100% (May 15, 10:00 PM)30.01 "Hg (May 15, 10:00 PM)
Low73 °F (May 22, 5:00 AM)55% (May 25, 1:00 PM)29.83 "Hg (May 18, 4:00 PM)
Average80 °F89%29.93 "Hg
* Reported May 15 3:00 PM — May 30 3:00 PM, Linden, Weather by CustomWeather, © 2016

Note: Actual official high and low records may vary slightly from our data, if they occured in-between our weather recording intervals... More about our weather records

Advertising

Linden Weather History for the Previous 24 Hours

Scroll right to see more
 ConditionsComfort  
Time TempWeatherWind HumidityBarometerVisibility
3:00 PM
Mon, May 30
84 °FPartly sunny.12 mph79%29.83 "HgN/A
2:00 PM86 °FRain showers. Partly sunny.9 mph70%29.86 "Hg5 mi
1:00 PM84 °FPartly sunny.9 mph74%29.86 "HgN/A
11:00 AM82 °FPartly sunny.7 mph84%29.92 "HgN/A
10:00 AM81 °FPartly sunny.7 mph89%29.95 "HgN/A
9:00 AM79 °FSprinkles. Partly sunny.12 mph89%29.95 "Hg6 mi
8:00 AM79 °FPartly sunny.5 mph94%29.92 "Hg6 mi
7:00 AM77 °FBroken clouds.No wind100%29.92 "HgN/A
6:00 AM75 °FBroken clouds.No wind100%29.89 "HgN/A
5:00 AM77 °FPassing clouds.5 mph94%29.89 "HgN/A
3:00 AM77 °FPassing clouds.5 mph94%29.86 "HgN/A
2:00 AM77 °FPassing clouds.5 mph94%29.89 "HgN/A
1:00 AM77 °FPassing clouds.5 mph100%29.89 "HgN/A
12:00 AM77 °FPassing clouds.No wind100%29.92 "HgN/A
11:00 PM
Sun, May 29
77 °FPassing clouds.No wind100%29.92 "HgN/A
10:00 PM79 °FPassing clouds.5 mph94%29.92 "HgN/A
9:00 PM79 °FPassing clouds.7 mph94%29.92 "HgN/A
8:00 PM79 °FPassing clouds.5 mph94%29.92 "HgN/A
7:00 PM79 °FPassing clouds.5 mph94%29.89 "HgN/A
6:00 PM81 °FPartly sunny.7 mph89%29.89 "HgN/A
5:00 PM82 °FBroken clouds.12 mph79%29.89 "HgN/A
4:00 PM86 °FBroken clouds.7 mph66%29.86 "HgN/A
Weather by CustomWeather, © 2016

See weather overviewHow to use our weather pages